Russell, KS

12:23 AM CDT on September 26, 2016 (GMT -0500)
Russell Municipal

Weather History for KRSL - May, 2013

Change the Weather History Date:

Thursday, May 23, 2013

  Actual Average Record
Temperature  
Mean Temperature 60 °F -  
Max Temperature 72 °F 75 °F 98 °F (1964)
Min Temperature 48 °F 53 °F 41 °F (1957)
Degree Days  
Heating Degree Days 6    
Growing Degree Days 10 (Base 50)    
Moisture  
Dew Point 49 °F    
Average Humidity 68    
Maximum Humidity 93    
Minimum Humidity 49    
Precipitation  
Precipitation 0.00 in - - ()
Sea Level Pressure  
Sea Level Pressure 30.11 in    
Wind  
Wind Speed 11 mph (ENE)    
Max Wind Speed 22 mph    
Max Gust Speed 24 mph    
Visibility 10 miles    
Events Rain    
Averages and records for this station are not official NWS values.
T = Trace of Precipitation, MM = Missing Value Source: NWS Daily Summary

Daily Weather History Graph

Daily Weather History Graph

Search for Another Location

Airport or City:

Trip Planner

Search our weather history database for the weather conditions in past years. The results will help you decide how hot, cold, wet, or windy it might be!

Date:

Astronomy

May. 23, 2013 Rise Set
Actual Time 6:16 AM CDT 8:48 PM CDT
Civil Twilight 5:45 AM CDT 9:18 PM CDT
Nautical Twilight 5:07 AM CDT 9:57 PM CDT
Astronomical Twilight 4:25 AM CDT 10:39 PM CDT
Moon 7:23 PM CDT (5/23) 5:01 AM CDT (5/23)
Length of Visible Light 15h 33m
Length of Day
14h 31m
Waxing Gibbous, 97% of the Moon is Illuminated
May 23
Waxing Gibbous
May 24
Full
May 31
Last Quarter
Jun 8
New
Jun 16
First Quarter

Hourly Weather History & Observations

Time (CDT) Temp. Dew Point Humidity Pressure Visibility Wind Dir Wind Speed Gust Speed Precip Events Conditions
12:53 AM 55.0 °F 48.9 °F 80% 30.01 in 10.0 mi NE 10.4 mph - N/A   Clear
1:53 AM 53.1 °F 48.0 °F 83% 30.03 in 10.0 mi NNE 9.2 mph - N/A   Clear
2:53 AM 52.0 °F 48.0 °F 86% 30.04 in 10.0 mi NNE 12.7 mph - N/A   Clear
3:53 AM 50.0 °F 46.9 °F 89% 30.06 in 10.0 mi North 9.2 mph - N/A   Clear
4:53 AM 48.0 °F 46.0 °F 93% 30.07 in 10.0 mi North 8.1 mph - N/A   Clear
5:53 AM 48.0 °F 46.0 °F 93% 30.09 in 10.0 mi North 8.1 mph - N/A   Clear
6:53 AM 50.0 °F 46.0 °F 86% 30.12 in 10.0 mi North 9.2 mph - 0.00 in Rain Light Rain
7:53 AM 50.0 °F 46.0 °F 86% 30.13 in 10.0 mi North 9.2 mph - 0.00 in   Clear
8:53 AM 54.0 °F 46.0 °F 75% 30.11 in 10.0 mi NNE 21.9 mph - N/A   Clear
9:53 AM 57.9 °F 46.9 °F 67% 30.12 in 10.0 mi NNE 17.3 mph 21.9 mph N/A   Clear
10:53 AM 62.1 °F 48.9 °F 62% 30.12 in 10.0 mi NE 15.0 mph 21.9 mph N/A   Clear
11:53 AM 64.0 °F 48.9 °F 58% 30.14 in 10.0 mi East 11.5 mph 19.6 mph N/A   Scattered Clouds
12:01 PM 64.4 °F 48.2 °F 56% 30.15 in 10.0 mi East 13.8 mph 19.6 mph N/A   Mostly Cloudy
12:18 PM 64.4 °F 50.0 °F 59% 30.16 in 10.0 mi East 8.1 mph 20.7 mph N/A   Scattered Clouds
12:53 PM 66.0 °F 50.0 °F 56% 30.14 in 10.0 mi ENE 13.8 mph 21.9 mph N/A   Partly Cloudy
1:53 PM 69.1 °F 50.0 °F 51% 30.13 in 10.0 mi East 13.8 mph 18.4 mph N/A   Clear
2:53 PM 69.1 °F 50.0 °F 51% 30.14 in 10.0 mi ENE 15.0 mph 24.2 mph N/A   Clear
3:53 PM 71.1 °F 51.1 °F 49% 30.13 in 10.0 mi East 12.7 mph 20.7 mph N/A   Clear
4:53 PM 70.0 °F 50.0 °F 49% 30.13 in 10.0 mi SE 11.5 mph - N/A   Clear
5:53 PM 71.1 °F 51.1 °F 49% 30.12 in 10.0 mi ESE 15.0 mph 21.9 mph N/A   Clear
6:53 PM 70.0 °F 52.0 °F 53% 30.10 in 10.0 mi East 15.0 mph - N/A   Clear
7:53 PM 68.0 °F 52.0 °F 56% 30.09 in 10.0 mi East 13.8 mph - N/A   Mostly Cloudy
8:53 PM 64.0 °F 52.0 °F 65% 30.10 in 10.0 mi East 11.5 mph - N/A   Partly Cloudy
9:53 PM 63.0 °F 52.0 °F 67% 30.11 in 10.0 mi East 9.2 mph - N/A   Mostly Cloudy
10:53 PM 61.0 °F 52.0 °F 72% 30.14 in 10.0 mi ESE 6.9 mph - N/A   Mostly Cloudy
11:53 PM 60.1 °F 53.1 °F 78% 30.16 in 10.0 mi East 8.1 mph - N/A   Mostly Cloudy